Location: Newark
(40.3500°N, 15.2333°E)
Time: 22:00:04
(UTC+00:00)

Altair - Pass Details

Date: 20 January 2020
Orbit: 1502 x 1682 km, 47.2° (Epoch: 19 February)

Event Time Altitude Azimuth Distance (km) Brightness Sun altitude
Rises 16:09:29 0° 298° (WNW) 4,910 10.7 -2.1°
Reaches altitude 10° 16:12:56 10° 291° (WNW) 3,902 10.4 -2.7°
Maximum altitude 16:21:49 39° 227° (SW) 2,268 9.2 -4.2°
Drops below altitude 10° 16:30:25 10° 163° (SSE) 3,763 9.6 -5.7°
Sets 16:33:43 0° 156° (SSE) 4,719 10.0 -6.3°
